Simultaneous Nadir Overpasses (SNOs) Predictions

Prediction of SNOs between METOP-C and LANDSAT-8 Satellite Orbit:

Table of predicted SNOs for the next 14.0 days since TLE Epoch: 8/31/2024
Index Date (METOP-C) Time (METOP-C) Lat,Lon (METOP-C) SZA (METOP-C ) Date (LANDSAT-8) Time (LANDSAT-8) Lat,Lon (LANDSAT-8) SZA (LANDSAT-8 ) Distance(km) Time Diff (sec)
1 08/31/2024 20:41:48 -81.10, 89.10 105.08 08/31/2024 20:42:19 -81.09, 88.95 105.09 2.74 31
2 08/31/2024 21:32:27 81.13,-102.75 75.04 08/31/2024 21:31:44 81.12,-102.94 75.00 3.27 43
3 09/03/2024 16:16:16 -81.09, 155.37 104.05 09/03/2024 16:16:37 -81.09, 155.34 104.04 0.61 21
4 09/03/2024 17:06:55 81.12, -36.49 76.08 09/03/2024 17:06:02 81.12, -36.58 76.04 1.58 53
5 09/06/2024 11:50:43 -81.10,-138.18 102.97 09/06/2024 11:50:53 -81.10,-138.13 102.96 0.82 10
6 09/06/2024 12:41:22 81.12, 29.96 77.15 09/06/2024 12:40:18 81.12, 29.91 77.11 0.75 64
7 09/09/2024 06:34:29 81.08, 120.55 78.05 09/09/2024 06:35:40 81.09, 120.52 78.08 0.49 71
8 09/09/2024 07:25:08 -81.10, -71.53 101.86 09/09/2024 07:25:06 -81.11, -71.47 101.85 1.22 2
9 09/12/2024 02:08:55 81.09,-173.00 79.15 09/12/2024 02:09:53 81.08,-173.06 79.17 1.10 58



Historial Predications of SNOs between METOP-C and LANDSAT-8
